Погода в Сусумане

Погода в Сусумане : погода сейчас, прогноз погоды и архив. Всё, что Вы хотите узнать о погоде в Сусумане!

Поиск расширенной информации на нашем сайте:

Другие новости

Новости СМИ2

Главная страница сайта

Новости сайта

03.07.2017

Напоминаем, что на нашем специализированном сайте Метеоцентр.Азия вы можете получить высокодетализированные автоматические прогнозы погоды по пунктам России, СНГ и мира в авиационном формате (включающие направление и скорость ветра, видимость, явления погоды, количество и форму облачности, нижнюю и верхнюю границу облачности).

Рекомендуем: Top100 бизнес и финансы базы данных предприятий россии.

Погода в Сусумане - сегодня

Время (UTC), дата Ветер
(°,м/с) 
Видим.   Явления Облачность Т
(°С)
Тd
(°С)
f(%) Тe
(°С)
Pmin
(гПа)
dP
(гПа)
Po
(мм)
O2
(г/м3)
Тmin Tmax R s Состояние
почвы
00 18.08.17 220 (ЮЗ) 20000 м  {туман}  6/3 1000 м верхняя 
[Sc|Ci fib]
+21.3 +12.6 58 +28  1005.5  -1.4  700  259           
03 18.08.17 250 (З) 20000 м    9/3 1000 м кучево-дожд., средняя, верхняя 
[Cb cap|Ac trans|Ci fib]
+25.5 +12.7 45 +32  1002.3  -1.9  698  255           
06 18.08.17 200 (Ю) 20000 м    8/4 1000 м кучево-дожд., средняя, верхняя 
[Cb cap|Ac trans|Ci fib]
+26.3 +10 36 +29  1001.3  -0.9  697  254           
09 18.08.17 тихо () {12}  20000 м  в посл. час ливневой дождь  9/9 960 м кучево-дожд. 
[Cb cap]
+15.9 +14.5 91 +26  1006.1  2.1  699  263    +27.3  0.9     
12 18.08.17 030 (СВ) 20000 м  {ливн. осадки}  8/8 1020 м кучево-дожд. 
[Cb cap]
+13.6 +13.1 97 +21  1007.8  700  266           
15 18.08.17 020 (С) 20000 м    8/6 900 м кучево-дожд., верхняя 
[Cb cap|Ci fib]
+12.5 +10.6 88 +15  1009.6  1.3  701  268           
18 18.08.17 010 (С) 20000 м    10/10 1140 м кучево-дожд. 
[Cb cap]
+11.7 +9.4 86 +13  1010.3  0.4  701  269           
21 18.08.17 010 (С) 20000 м    10/10 800 м кучево-дожд. 
[Cb cap]
+12.3 +9.3 82 +14  1010.6  0.5  701  269  +11.7        влажная 
00 19.08.17 020 (С) 20000 м    9/9 1080 м кучево-дожд. 
[Cb cap]
+15.5 +10.5 72 +19  1009.4  -0.4  701  265           
03 19.08.17 010 (С) 20000 м    4/4 1000 м кучево-дожд. 
[Cb cap]
+18.8 +11.3 62 +23  1006.6  -1.7  700  262           
06 19.08.17 360 (С) 20000 м    4/4 1000 м кучево-дожд. 
[Cb cap]
+20.3 +12.8 62 +27  1003.3  -2.7  698  259           
09 19.08.17 160 (Ю) 20000 м    8/8 1140 м кучево-дожд. 
[Cb cap]
+18.6 +11.8 65 +25  1002.8  -0.8  697  261    +22.1       
12 19.08.17 180 (Ю) 20000 м    10/10 1020 м кучево-дожд. 
[Cb cap]
+15.2 +11.3 78 +21  1003.8  0.1  697  264           
15 19.08.17 210 (ЮЗ) 20000 м    10/10 1050 м кучево-дожд. 
[Cb cap]
+14.6 +10.5 76 +18  1003.8  -0.2  697  265           
18 19.08.17 210 (ЮЗ) 20000 м    10/10 1000 м кучево-дожд. 
[Cb cap]
+12.4 +9.9 85 +15  1004.9  0.4  698  267           
21 19.08.17 220 (ЮЗ) 20000 м  слаб. ливневой дождь  10/10 840 м кучево-дожд. 
[Cb cap]
+12.7 +10.7 88 +17  1005.5  0.4  698  267  +11.5    0.1    влажная 
00 20.08.17 190 (Ю) 10 км  слаб. ливневой дождь  10/10 540 м кучево-дожд. 
[Cb cap]
+12.9 +11.8 93 +18  1006.1  0.6  698  266           
03 20.08.17 150 (ЮВ) 10 км  ливневой дождь  10/10 600 м кучево-дожд. 
[Cb cap]
+13.2 +12 92 +20  1005.9  0.1  698  266           
06 20.08.17 230 (ЮЗ) 20000 м  {ливн. осадки}  10/10 750 м кучево-дожд. 
[Cb cap]
+14.8 +11.2 79 +20  1005.2  -0.2  698  265           
09 20.08.17 200 (Ю) 20000 м    10/10 930 м кучево-дожд. 
[Cb cap]
+12.5 +11.4 93 +19  1007.1  1.1  699  267    +15     
12 20.08.17 010 (С) 10 км  ливневой дождь  10/10 800 м кучево-дожд. 
[Cb cap]
+10.3 +10 98 +13  1009.1  1.3  700  270           
15 20.08.17 020 (С) 10 км  ливневой дождь  10/10 800 м кучево-дожд. 
[Cb cap]
+8.2 +7.7 97 +7  1010.7  0.9  701  273           
18 20.08.17 010 (С) 10 км  ливневой дождь  10/10 800 м кучево-дожд. 
[Cb cap]
+7.7 +7.1 96 +7  1011.7  0.8  701  273           
21 20.08.17 010 (С) 10 км  ливневой дождь  10/10 540 м кучево-дожд. 
[Cb cap]
+8.2 +7.5 95 +8  1013.1  1.4  702  273  +7.6    17    мокрая 
00 21.08.17 050 (СВ) 20000 м  в посл. час ливневой дождь  9/9 900 м кучево-дожд. 
[Cb cap]
+11.2 +7.4 77 +10  1012.8  0.5  703  271           
Время (UTC), дата Ветер
(°,м/с) 
Видим.   Явления Облачность Т
(°С)
Тd
(°С)
f(%) Тe
(°С)
Pmin
(гПа)
dP
(гПа)
Po
(мм)
O2
(г/м3)
Тmin Tmax R s Состояние
почвы

Для получения пояснительной информации подведите курсор к названию столбца.

ПОГОДА в Сусумане - архив

Всё, что Вы хотите узнать о погоде в Сусумане - удобно и подробно!

Выберите нужную дату (начиная с 1 января 2015* года) и нажмите кнопку "Найти".
Будут отображены архивные сводки погоды по пункту Сусуман, начиная с указанной даты.


Отображать данные в формате CSV (для использования в таблицах Excel)


Внимание! Наш архив погоды предназначен исключительно для личного некоммерческого использования в познавательных целях. Если Вам необходимы официальные справки о состоянии погоды (для производственных, юридических, коммерческих и т.п. целей), обращайтесь в органы Росгидромета.

*Примечание: данная дата относится к архиву по метеостанциям СССР (Россия, СНГ, Балтия).
Архив по метеостанциям Зарубежной Европы и Азии (кроме Китая) хранится 10 дней, по другим регионам земного шара (Китай, Африка, Америка, Австралия, Океания) - 1 день.

Сусуман - район местоположения метеостанции


Название, широта, долгота, высота метеостанции:
Сусуман 62.8°ш. 148.2°д. 655 м над ур. моря [Российская Федерация]

Дополнительная информация

В oтличие oт бoльшинства пoгoдных сайтoв мы публикуем пoдрoбную метеoинфoрмацию в детальнoм прoфессиoнальнoм фoрмате.

Характеристики температуры и влажнoсти вoздуха измеряются на высoте 2 м в тени вдали oт зданий и деревьев.
Скoрoсть ветра измеряется на высoте 10 м (на урoвне рoста челoвека скoрoсть ветра ниже в 1.5-2 раза). Если метеoстанция нахoдится в гoрoде или в лесу, тo скoрoсть ветра занижена на 2-4 м/с пo сравнению с oткрытым местoм. Скoрoсть ветра над акватoриями крупных рек и oзёр, а также на вершинах хoлмoв на 2-5 м/с выше, чем в oбычных услoвиях.
Атмoсфернoе давление в разных тoчках местнoсти мoжет значительнo oтличаться oт давления на метеoстанции, в зависимoсти oт услoвий рельефа (при пoдъёме на 10 м давление пoнижается примернo на 1 мм рт.ст.).